Skagway, AK

11:00 PM AKST on November 22, 2017 (GMT -0900)
Skagway

Weather History for PAGY - February, 2013

Change the Weather History Date:

Monday, February 25, 2013

  Actual Average Record
Temperature  
Mean Temperature 32 °F -  
Max Temperature 37 °F 35 °F 50 °F (1992)
Min Temperature 28 °F 26 °F 3 °F (1982)
Degree Days  
Heating Degree Days 32    
Moisture  
Dew Point 27 °F    
Average Humidity 78    
Maximum Humidity 89    
Minimum Humidity 66    
Precipitation  
Precipitation 0.00 in - - ()
Sea Level Pressure  
Sea Level Pressure 29.93 in    
Wind  
Wind Speed 4 mph (ENE)    
Max Wind Speed 8 mph    
Max Gust Speed -    
Visibility 10 miles    
Events      
Averages and records for this station are not official NWS values.
T = Trace of Precipitation, MM = Missing Value Source: NWS Daily Summary

Daily Weather History Graph

Daily Weather History Graph

Search for Another Location

Airport or City:

Trip Planner

Search our weather history database for the weather conditions in past years. The results will help you decide how hot, cold, wet, or windy it might be!

Date:

Astronomy

Feb. 25, 2013 Rise Set
Actual Time 7:08 AM AKST 5:20 PM AKST
Civil Twilight 6:27 AM AKST 6:02 PM AKST
Nautical Twilight 5:39 AM AKST 6:49 PM AKST
Astronomical Twilight 4:52 AM AKST 7:37 PM AKST
Moon 5:59 PM AKST (2/25) 6:32 AM AKST (2/25)
Length of Visible Light 11h 35m
Length of Day
10h 12m
Full, 100% of the Moon is Illuminated
Feb 25
Full
Mar 4
Last Quarter
Mar 11
New
Mar 19
First Quarter
Mar 27
Full

Hourly Weather History & Observations

Time (AKST) Temp. Windchill Dew Point Humidity Pressure Visibility Wind Dir Wind Speed Gust Speed Precip Events Conditions
12:53 AM 36.0 °F 29.6 °F 30.0 °F 79% 29.84 in 10.0 mi SSW 8.1 mph - N/A   Overcast
1:53 AM 35.1 °F 32.2 °F 28.9 °F 78% 29.86 in 10.0 mi Variable 3.5 mph - N/A   Overcast
3:53 AM 33.1 °F 26.1 °F 28.0 °F 82% 29.87 in 10.0 mi NNE 8.1 mph - N/A   Overcast
4:53 AM 32.0 °F - 28.0 °F 85% 29.90 in 10.0 mi Calm Calm - N/A   Overcast
5:40 AM 30.2 °F 26.7 °F 26.6 °F 86% 29.91 in 10.0 mi NNE 3.5 mph - N/A   Overcast
5:53 AM 30.9 °F 27.5 °F 28.0 °F 89% 29.91 in 10.0 mi NE 3.5 mph - N/A   Overcast
6:53 AM 32.0 °F 27.5 °F 28.0 °F 85% 29.91 in 10.0 mi NE 4.6 mph - N/A   Overcast
7:02 AM 32.0 °F 28.7 °F 26.6 °F 80% 29.92 in 10.0 mi ENE 3.5 mph - N/A   Overcast
7:53 AM 32.0 °F 27.5 °F 25.0 °F 75% 29.93 in 10.0 mi NE 4.6 mph - N/A   Overcast
8:53 AM 34.0 °F - 26.1 °F 73% 29.94 in 10.0 mi Calm Calm - N/A   Overcast
9:53 AM 34.0 °F - 27.0 °F 75% 29.96 in 10.0 mi Calm Calm - N/A   Overcast
10:53 AM 36.0 °F - 28.9 °F 76% 29.96 in 10.0 mi Calm Calm - N/A   Overcast
11:53 AM 35.1 °F 32.2 °F 28.9 °F 78% 29.98 in 10.0 mi SW 3.5 mph - N/A   Overcast
12:53 PM 36.0 °F 33.3 °F 30.9 °F 82% 29.98 in 10.0 mi SSW 3.5 mph - N/A   Overcast
1:53 PM 36.0 °F 32.1 °F 30.9 °F 82% 29.96 in 10.0 mi SW 4.6 mph - N/A   Mostly Cloudy
2:53 PM 37.0 °F 31.6 °F 30.0 °F 76% 29.96 in 10.0 mi SSW 6.9 mph - N/A   Overcast
3:53 PM 36.0 °F 29.6 °F 30.0 °F 79% 29.96 in 10.0 mi SW 8.1 mph - N/A   Overcast
4:53 PM 34.0 °F - 28.0 °F 79% 29.95 in 10.0 mi Calm Calm - N/A   Scattered Clouds
5:53 PM 32.0 °F 27.5 °F 26.1 °F 79% 29.96 in 10.0 mi NE 4.6 mph - N/A   Scattered Clouds
6:53 PM 32.0 °F 28.7 °F 21.9 °F 66% 29.96 in 10.0 mi NE 3.5 mph - N/A   Mostly Cloudy
7:53 PM 30.0 °F 25.2 °F 21.0 °F 69% 29.95 in 10.0 mi NE 4.6 mph - N/A   Partly Cloudy
8:53 PM 30.0 °F - 21.9 °F 72% 29.94 in 10.0 mi Calm Calm - N/A   Mostly Cloudy
9:53 PM 28.9 °F - 21.9 °F 75% 29.93 in 10.0 mi Calm Calm - N/A   Mostly Cloudy
10:53 PM 30.9 °F 27.5 °F 23.0 °F 72% 29.91 in 10.0 mi Variable 3.5 mph - N/A   Overcast
11:53 PM 30.9 °F - 24.1 °F 76% 29.90 in 10.0 mi Calm Calm - N/A   Overcast